Simultaneous Nadir Overpasses (SNOs) Predictions

Prediction of SNOs between AQUA and GOES-15 Satellite Orbit:

Table of predicted SNOs for the next 14.0 days since TLE Epoch: 9/14/2012
Index Date Time (AQUA) AQUA Lat,Lon GOES-15 Lat,Lon Distance(km) Time Diff (sec)
1 09/15/2012 10:19:14 -0.49,-131.07 0.35,-135.06 452.78 80
2 09/15/2012 22:40:39 -0.56,-136.27 -0.33,-135.04 139.68 80
3 09/17/2012 22:28:28 0.05,-133.32 -0.33,-135.10 202.15 80
4 09/18/2012 10:49:44 1.03,-138.48 0.31,-135.14 379.80 80
5 09/20/2012 10:37:35 0.40,-135.54 0.31,-135.19 40.04 80
6 09/22/2012 10:25:28 -0.27,-132.61 0.31,-135.22 298.28 80
7 09/22/2012 22:46:53 -0.85,-137.80 -0.29,-135.20 296.12 80
8 09/24/2012 22:34:47 -0.22,-134.87 -0.29,-135.23 40.93 80
9 09/26/2012 22:22:42 0.39,-131.94 -0.29,-135.26 377.34 80
10 09/27/2012 10:44:00 0.63,-137.12 0.27,-135.31 205.54 80




NCC Satellite Simultaneous Nadir Overpasses (SNOs) Prediction Service
